Regional Weather Roundup
Issued by NWS

Home | Current Version | Previous Version | Text Only | Print | Product List | Glossary On
Versions: 1 2 3 4 5 6 7 8 9 10 11 12 13 14 15 16 17 18 19 20 21 22 23 24 25 26 27 28 29 30 31 32 33 34 35 36 37 38 39 40 41 42 43 44 45 46 47 48 49 50
000
ASUS43 KTOP 030108
RWRKS

WEATHER ROUNDUP FOR KANSAS
NATIONAL WEATHER SERVICE GOODLAND KS
800 PM CDT WED SEP 02 2015

NOTE:  "FAIR" INDICATES FEW OR NO CLOUDS BELOW 12,000 FEET WITH NO
SIGNIFICANT WEATHER AND/OR OBSTRUCTIONS TO VISIBILITY.

KSZ001>006-013>018-027>032-041>047-030200-
NORTHWEST KANSAS

CITY           SKY/WX    TMP DP  RH WIND       PRES   REMARKS
GOODLAND       PTCLDY    87  45  23 SW7       29.87S
HAYS           CLEAR     93  55  27 S17       29.81R
HILL CITY      CLEAR     93  57  29 S6        29.79S
RUSSELL        CLEAR     92  57  30 S20       29.80S
$$

KSZ061>065-074>080-084>089-030200-
SOUTHWEST KANSAS

CITY           SKY/WX    TMP DP  RH WIND       PRES   REMARKS
DODGE CITY     PTCLDY    87  54  32 S14       29.88R
ELKHART          N/A     84  56  38 S10         N/A
GARDEN CITY    MOCLDY    86  55  34 S14       29.86S
GREAT BEND     CLEAR     90  59  35 S18       29.83S
LIBERAL        MOCLDY    90  54  29 S16G24    29.91S
PRATT          CLEAR     88  54  31 MISG      29.89S
$$

KSZ066>073-081>083-090>101-030200-
SOUTHEAST KANSAS

CITY           SKY/WX    TMP DP  RH WIND       PRES   REMARKS
CHANUTE        CLEAR     78  70  76 S7        29.94S
COFFEYVILLE    CLEAR     79  70  74 S6        29.93F
HUTCHINSON     CLEAR     88  62  41 S15       29.87S
MEDICINE LODGE   N/A     89  60  37 S10       29.87R
NEWTON         CLEAR     84  63  48 S13       29.92S
PARSONS        CLEAR     80  71  74 CALM      29.95S
WICHITA INTL   PTCLDY    86  63  45 S14       29.88S
WICHITA JABRA  CLEAR     84  65  52 S12       29.90R
WINFIELD       CLEAR     84  66  54 SE14      29.92S
$$

KSZ007>012-019>026-033>040-048>060-102>105-030200-
NORTHEAST KANSAS

CITY           SKY/WX    TMP DP  RH WIND       PRES   REMARKS
CONCORDIA      CLEAR     85  64  49 S10       29.83R
EMPORIA        CLEAR     82  68  62 S13       29.91S
LAWRENCE       CLEAR     80  68  66 S8        29.91S
MANHATTAN      CLEAR     86  67  52 S9        29.85S
MARYSVILLE     CLEAR     86  68  54 S10       29.85S
OLATHE IND     CLEAR     78  70  76 S8        29.94S
OLATHE EXE     CLEAR     77  69  76 S6        29.93S
SALINA         CLEAR     90  63  40 S17       29.83F
TOPEKA BILLARD CLEAR     82  70  66 SE9       29.89S
TOPEKA FORBES  CLEAR     82  70  66 SE8       29.90S
$$



USA.gov is the U.S. government's official web portal to all federal, state and local government web resources and services.